.
WxDataArchive / Data Records for 2015-06-15
2015-06-14 June 2015 2015-06-16

Data Records for Monday, 15 June 2015

Time	Temp	Chill	HIndex	Humid	Dewpt	 Wind 	HiWind	WindDir	Rain 	Barom
-----	----	-----	------	-----	-----	------	------	-------	-----	-----
00:00	71.8	71.8	71.8	94	70.0	0	0	---	0.00	29.927 
00:05	71.8	71.8	71.8	94	70.0	0	0	---	0.00	29.927 
00:10	72.0	72.0	72.0	95	70.5	0	0	---	0.00	29.927 
00:15	72.0	72.0	72.0	95	70.5	0	0	---	0.00	29.927 
00:20	72.0	72.0	72.0	95	70.5	0	0	---	0.00	29.927 
00:25	72.0	72.0	72.0	95	70.5	0	0	---	0.00	29.927 
00:30	72.0	72.0	72.0	95	70.5	0	0	---	0.00	29.928 
00:35	72.0	72.0	72.0	95	70.5	0	0	---	0.00	29.928 
00:40	72.0	72.0	72.0	95	70.5	0	0	---	0.00	29.928 
00:45	72.0	72.0	72.0	95	70.5	0	0	---	0.00	29.930 
00:50	72.0	72.0	72.0	95	70.5	0	0	---	0.00	29.930 
00:55	72.0	72.0	72.0	95	70.5	0	0	---	0.00	29.930 
01:00	71.8	71.8	71.8	95	70.3	0	0	---	0.00	29.931 
01:05	71.8	71.8	71.8	95	70.3	0	0	---	0.00	29.931 
01:10	71.8	71.8	71.8	95	70.3	0	0	---	0.00	29.931 
01:15	71.8	71.8	71.8	95	70.3	0	0	---	0.00	29.927 
01:20	71.6	71.6	71.6	95	70.1	0	0	---	0.00	29.927 
01:25	71.6	71.6	71.6	95	70.1	0	0	---	0.00	29.927 
01:30	71.6	71.6	71.6	95	70.1	0	0	---	0.00	29.929 
01:35	71.6	71.6	71.6	95	70.1	0	0	---	0.00	29.929 
01:40	71.6	71.6	71.6	95	70.1	0	0	---	0.00	29.929 
01:45	71.6	71.6	71.6	95	70.1	0	0	---	0.00	29.932 
01:50	71.8	71.8	71.8	95	70.3	0	0	---	0.00	29.932 
01:55	71.8	71.8	71.8	95	70.3	0	0	---	0.00	29.932 
02:00	72.0	72.0	72.0	95	70.5	0	0	---	0.00	29.928 
02:05	72.1	72.1	72.1	95	70.6	0	0	---	0.00	29.928 
02:10	72.1	72.1	72.1	95	70.6	0	0	---	0.00	29.928 
02:15	72.3	72.3	72.3	96	71.1	0	0	---	0.00	29.928 
02:20	72.3	72.3	72.3	95	70.8	0	0	---	0.00	29.928 
02:25	72.3	72.3	72.3	95	70.8	0	0	---	0.00	29.928 
02:30	72.5	72.5	72.5	95	71.0	0	0	---	0.00	29.926 
02:35	72.5	72.5	72.5	95	71.0	0	0	---	0.00	29.926 
02:40	72.5	72.5	72.5	96	71.3	0	0	---	0.00	29.926 
02:45	72.5	72.5	72.5	96	71.3	0	0	---	0.00	29.925 
02:50	72.5	72.5	72.5	95	71.0	0	0	---	0.00	29.925 
02:55	72.5	72.5	72.5	96	71.3	0	2	292	0.00	29.925 
03:00	72.3	72.3	72.3	95	70.8	0	0	---	0.00	29.927 
03:05	72.3	72.3	72.3	95	70.8	0	1	292	0.00	29.927 
03:10	72.3	72.3	72.3	95	70.8	0	1	292	0.00	29.927 
03:15	72.3	72.3	72.3	95	70.8	0	1	292	0.00	29.925 
03:20	72.3	72.3	72.3	95	70.8	0	1	292	0.00	29.925 
03:25	72.1	72.1	72.1	95	70.6	0	0	---	0.00	29.925 
03:30	72.1	72.1	72.1	95	70.6	0	1	292	0.00	29.925 
03:35	72.1	72.1	72.1	95	70.6	0	0	---	0.00	29.925 
03:40	72.1	72.1	72.1	95	70.6	0	1	292	0.00	29.925 
03:45	72.1	72.1	72.1	95	70.6	0	1	292	0.00	29.924 
03:50	72.1	72.1	72.1	95	70.6	0	2	292	0.00	29.924 
03:55	72.1	72.1	72.1	95	70.6	0	1	292	0.00	29.924 
04:00	72.0	72.0	72.0	95	70.5	0	1	292	0.00	29.923 
04:05	72.0	72.0	72.0	95	70.5	0	2	292	0.00	29.923 
04:10	72.0	72.0	72.0	95	70.5	0	1	292	0.00	29.923 
04:15	72.1	72.1	72.1	95	70.6	0	1	292	0.00	29.925 
04:20	72.1	72.1	72.1	95	70.6	0	1	292	0.00	29.925 
04:25	72.1	72.1	72.1	95	70.6	0	1	292	0.00	29.925 
04:30	72.1	72.1	72.1	95	70.6	0	3	292	0.00	29.925 
04:35	72.1	72.1	72.1	95	70.6	0	1	292	0.00	29.925 
04:40	72.1	72.1	72.1	95	70.6	0	1	292	0.00	29.925 
04:45	72.1	72.1	72.1	95	70.6	0	2	292	0.00	29.924 
04:50	72.1	72.1	72.1	95	70.6	0	2	292	0.00	29.924 
04:55	72.1	72.1	72.1	95	70.6	0	2	292	0.00	29.924 
05:00	72.1	72.1	72.1	95	70.6	0	1	292	0.00	29.915 
05:05	72.1	72.1	72.1	95	70.6	0	1	292	0.00	29.915 
05:10	72.1	72.1	72.1	95	70.6	0	1	292	0.00	29.915 
05:15	72.1	72.1	72.1	95	70.6	0	1	292	0.00	29.921 
05:20	72.1	72.1	72.1	94	70.3	0	1	292	0.00	29.921 
05:25	72.1	72.1	72.1	95	70.6	0	0	---	0.00	29.921 
05:30	72.1	72.1	72.1	94	70.3	0	1	292	0.00	29.927 
05:35	72.1	72.1	72.1	94	70.3	0	1	292	0.00	29.927 
05:40	72.1	72.1	72.1	94	70.3	0	1	292	0.00	29.927 
05:45	72.3	72.3	72.3	94	70.5	0	1	292	0.00	29.931 
05:50	72.3	72.3	72.3	94	70.5	0	2	292	0.01	29.931 
05:55	72.3	72.3	72.3	94	70.5	0	1	292	0.00	29.931 
06:00	72.3	72.3	72.3	94	70.5	0	1	292	0.00	29.933 
06:05	72.3	72.3	72.3	94	70.5	0	0	---	0.00	29.933 
06:10	72.3	72.3	72.3	94	70.5	0	3	292	0.00	29.933 
06:15	72.3	72.3	72.3	94	70.5	0	3	292	0.00	29.936 
06:20	72.3	72.3	72.3	94	70.5	0	2	292	0.00	29.936 
06:25	72.3	72.3	72.3	94	70.5	0	0	---	0.00	29.936 
06:30	72.3	72.3	72.3	94	70.5	0	0	---	0.00	29.939 
06:35	72.3	72.3	72.3	94	70.5	0	1	292	0.00	29.939 
06:40	72.3	72.3	72.3	94	70.5	0	1	292	0.00	29.939 
06:45	72.3	72.3	72.3	94	70.5	0	1	292	0.00	29.946 
06:50	72.5	72.5	72.5	94	70.7	0	1	292	0.00	29.946 
06:55	72.5	72.5	72.5	94	70.7	0	1	292	0.00	29.946 
07:00	72.5	72.5	72.5	94	70.7	0	1	292	0.00	29.945 
07:05	72.7	72.7	72.7	94	70.9	0	1	292	0.00	29.945 
07:10	72.7	72.7	72.7	94	70.9	0	0	---	0.00	29.945 
07:15	72.7	72.7	72.7	94	70.9	0	1	292	0.00	29.947 
07:20	72.8	72.8	72.8	94	71.0	0	0	---	0.00	29.947 
07:25	73.0	73.0	73.0	94	71.2	0	1	292	0.00	29.947 
07:30	73.0	73.0	73.0	94	71.2	0	1	292	0.00	29.951 
07:35	73.2	73.2	73.2	94	71.4	0	0	---	0.00	29.951 
07:40	73.2	73.2	73.2	93	71.0	0	1	292	0.00	29.951 
07:45	73.2	73.2	73.2	93	71.0	0	2	292	0.00	29.954 
07:50	73.2	73.2	73.2	93	71.0	0	2	292	0.00	29.954 
07:55	73.3	73.3	73.3	93	71.1	0	1	292	0.00	29.954 
08:00	73.3	73.3	73.3	93	71.1	0	1	292	0.00	29.956 
08:05	73.2	73.2	73.2	93	71.0	0	1	292	0.00	29.956 
08:10	73.3	73.3	73.3	93	71.1	0	2	292	0.00	29.956 
08:15	73.3	73.3	73.3	92	70.8	0	1	292	0.00	29.960 
08:20	73.5	73.5	73.5	92	71.0	0	1	292	0.00	29.960 
08:25	73.5	73.5	73.5	92	71.0	0	1	292	0.00	29.960 
08:30	73.5	73.5	73.5	92	71.0	0	1	292	0.00	29.957 
08:35	73.5	73.5	73.5	92	71.0	0	0	---	0.00	29.957 
08:40	73.7	73.7	73.7	91	70.9	0	1	292	0.00	29.957 
08:45	73.7	73.7	73.7	91	70.9	0	3	292	0.00	29.957 
08:50	73.7	73.7	73.7	91	70.9	0	2	292	0.00	29.957 
08:55	73.7	73.7	73.7	91	70.9	0	1	292	0.00	29.957 
09:00	74.0	74.0	74.0	91	71.2	0	2	292	0.00	29.957 
09:05	74.0	74.0	74.0	90	70.9	0	1	292	0.00	29.957 
09:10	74.2	74.2	74.2	90	71.1	0	2	292	0.00	29.957 
09:15	74.0	74.0	74.0	89	70.5	0	1	292	0.00	29.956 
09:20	74.2	74.2	74.2	89	70.7	0	1	292	0.00	29.956 
09:25	74.2	74.2	74.2	89	70.7	0	0	---	0.00	29.956 
09:30	74.4	74.4	74.4	89	70.9	0	1	292	0.00	29.958 
09:35	74.4	74.4	74.4	89	70.9	0	1	292	0.00	29.958 
09:40	74.4	74.4	74.4	89	70.9	0	1	292	0.00	29.958 
09:45	74.6	74.6	74.6	88	70.8	0	3	292	0.00	29.959 
09:50	74.9	74.9	74.9	88	71.1	0	2	292	0.00	29.959 
09:55	75.4	75.4	75.1	88	71.6	0	3	292	0.00	29.959 
10:00	76.0	76.0	76.4	87	71.8	0	2	292	0.00	29.957 
10:05	76.5	76.5	77.4	86	72.0	0	3	292	0.00	29.957 
10:10	77.0	77.0	78.4	84	71.8	0	3	292	0.00	29.957 
10:15	77.2	77.2	78.9	82	71.3	0	3	292	0.00	29.956 
10:20	77.2	77.2	78.9	81	70.9	1	3	270	0.00	29.956 
10:25	77.4	77.4	79.2	82	71.5	0	3	270	0.00	29.956 
10:30	77.7	77.7	79.8	82	71.8	0	1	270	0.00	29.955 
10:35	77.9	77.9	80.1	81	71.6	0	2	270	0.00	29.955 
10:40	77.7	77.7	79.8	81	71.4	0	1	270	0.00	29.955 
10:45	78.1	78.1	80.5	81	71.8	0	2	270	0.00	29.954 
10:50	78.3	78.3	80.8	78	70.9	0	2	270	0.00	29.954 
10:55	78.8	78.8	81.8	80	72.1	0	3	270	0.00	29.954 
11:00	79.4	79.4	82.8	78	71.9	0	3	292	0.00	29.952 
11:05	79.4	79.4	82.6	76	71.2	0	2	292	0.00	29.952 
11:10	79.4	79.4	82.6	76	71.2	0	3	292	0.00	29.952 
11:15	79.4	79.4	82.7	77	71.5	0	2	292	0.00	29.953 
11:20	79.4	79.4	82.6	76	71.2	0	2	292	0.00	29.953 
11:25	79.4	79.4	82.6	76	71.2	0	1	225	0.00	29.953 
11:30	79.6	79.6	83.1	77	71.7	0	1	248	0.00	29.955 
11:35	79.4	79.4	82.6	76	71.2	1	3	248	0.00	29.955 
11:40	79.2	79.2	82.2	76	71.0	1	3	248	0.00	29.955 
11:45	79.2	79.2	82.1	75	70.6	1	4	248	0.00	29.960 
11:50	79.0	79.0	81.9	76	70.8	1	2	248	0.00	29.960 
11:55	78.8	78.8	81.5	76	70.6	0	3	248	0.00	29.960 
12:00	78.8	78.8	81.6	77	71.0	1	3	248	0.00	29.949 
12:05	79.2	79.2	82.4	78	71.7	0	1	248	0.00	29.949 
12:10	79.8	79.8	83.3	76	71.5	1	3	248	0.00	29.949 
12:15	80.3	80.3	84.3	76	72.0	0	2	248	0.00	29.943 
12:20	80.5	80.5	84.8	77	72.6	0	1	248	0.00	29.943 
12:25	81.1	81.1	85.7	75	72.4	0	2	248	0.00	29.943 
12:30	81.2	81.2	85.7	74	72.1	0	2	248	0.00	29.937 
12:35	81.6	81.6	86.7	75	72.9	0	2	248	0.00	29.937 
12:40	81.8	81.8	86.7	73	72.3	1	4	248	0.00	29.937 
12:45	82.6	82.6	88.4	73	73.0	0	1	248	0.00	29.927 
12:50	82.6	82.6	87.3	69	71.4	1	4	248	0.00	29.927 
12:55	82.4	82.4	87.4	71	72.0	1	4	248	0.00	29.927 
13:00	82.0	82.0	86.7	71	71.6	1	4	248	0.00	29.925 
13:05	81.4	81.4	85.7	72	71.5	1	4	248	0.00	29.925 
13:10	81.2	81.2	85.5	73	71.7	1	3	248	0.00	29.925 
13:15	81.4	81.4	86.1	74	72.3	1	3	248	0.00	29.925 
13:20	81.8	81.8	86.5	72	71.9	1	4	248	0.00	29.925 
13:25	82.2	82.2	87.0	71	71.8	1	3	248	0.00	29.925 
13:30	82.2	82.2	87.0	71	71.8	1	4	315	0.00	29.920 
13:35	82.2	82.2	87.5	73	72.7	0	1	90	0.00	29.920 
13:40	82.8	82.8	88.8	73	73.2	1	3	90	0.00	29.920 
13:45	83.2	83.2	90.0	74	74.0	1	3	90	0.00	29.912 
13:50	83.8	83.8	91.0	73	74.2	1	3	90	0.00	29.912 
13:55	83.8	83.8	90.0	70	72.9	1	3	90	0.00	29.912 
14:00	84.0	84.0	90.8	71	73.6	1	4	315	0.00	29.907 
14:05	83.8	83.8	90.0	70	72.9	0	2	315	0.00	29.907 
14:10	83.8	83.8	89.7	69	72.5	2	4	292	0.00	29.907 
14:15	83.8	83.8	89.4	68	72.1	1	5	270	0.00	29.908 
14:20	83.4	83.4	88.9	69	72.1	0	3	270	0.00	29.908 
14:25	83.2	83.2	88.8	70	72.4	0	3	270	0.00	29.908 
14:30	83.2	83.2	89.4	72	73.2	1	3	270	0.00	29.905 
14:35	83.0	83.0	88.9	72	73.0	2	4	270	0.00	29.905 
14:40	82.6	82.6	88.4	73	73.0	1	4	270	0.00	29.905 
14:45	82.4	82.4	87.9	73	72.9	0	2	270	0.00	29.881 
14:50	82.4	82.4	88.2	74	73.3	0	1	270	0.00	29.881 
14:55	82.4	82.4	88.7	76	74.1	0	0	---	0.00	29.881 
15:00	82.8	82.8	89.3	75	74.0	0	3	270	0.00	29.879 
15:05	83.4	83.4	90.4	74	74.2	0	3	270	0.00	29.879 
15:10	84.1	84.1	91.0	71	73.7	1	2	270	0.00	29.879 
15:15	84.7	84.7	91.7	69	73.4	1	4	270	0.00	29.869 
15:20	85.1	85.1	92.6	69	73.8	0	2	270	0.00	29.869 
15:25	85.1	85.1	91.1	65	72.0	1	3	270	0.00	29.869 
15:30	84.9	84.9	90.7	65	71.8	0	3	270	0.00	29.864 
15:35	84.5	84.5	90.5	67	72.3	0	3	270	0.00	29.864 
15:40	84.0	84.0	89.5	67	71.8	1	3	270	0.00	29.864 
15:45	81.6	81.6	86.5	74	72.5	3	12	248	0.21	29.941 
15:50	77.6	77.6	79.6	81	71.3	2	7	270	0.11	29.941 
15:55	74.7	74.7	74.7	84	69.5	5	12	270	0.02	29.941 
16:00	73.0	73.0	73.0	87	68.9	3	6	292	0.01	29.939 
16:05	72.0	72.0	72.0	88	68.2	2	4	292	0.02	29.939 
16:10	71.3	71.3	71.3	89	67.9	2	6	292	0.01	29.939 
16:15	71.1	71.1	71.1	91	68.3	1	3	270	0.01	29.931 
16:20	71.1	71.1	71.1	92	68.7	1	4	270	0.02	29.931 
16:25	70.9	70.9	70.9	92	68.5	1	2	270	0.05	29.931 
16:30	70.9	70.9	70.9	92	68.5	0	1	270	0.01	29.919 
16:35	71.1	71.1	71.1	93	69.0	0	2	270	0.00	29.919 
16:40	71.1	71.1	71.1	93	69.0	0	1	270	0.00	29.919 
16:45	71.3	71.3	71.3	93	69.2	0	2	270	0.00	29.909 
16:50	71.3	71.3	71.3	93	69.2	0	1	270	0.00	29.909 
16:55	71.5	71.5	71.5	94	69.7	0	1	270	0.01	29.909 
17:00	71.5	71.5	71.5	94	69.7	0	2	270	0.00	29.901 
17:05	71.8	71.8	71.8	94	70.0	0	1	270	0.01	29.901 
17:10	71.8	71.8	71.8	94	70.0	0	1	270	0.00	29.901 
17:15	72.0	72.0	72.0	94	70.2	0	1	270	0.00	29.886 
17:20	71.8	71.8	71.8	94	70.0	0	1	270	0.00	29.886 
17:25	71.8	71.8	71.8	94	70.0	0	1	270	0.00	29.886 
17:30	71.8	71.8	71.8	94	70.0	0	1	270	0.01	29.882 
17:35	71.8	71.8	71.8	94	70.0	0	1	270	0.00	29.882 
17:40	72.0	72.0	72.0	95	70.5	0	1	270	0.00	29.882 
17:45	72.1	72.1	72.1	95	70.6	0	1	270	0.00	29.883 
17:50	72.5	72.5	72.5	95	71.0	0	1	270	0.00	29.883 
17:55	72.5	72.5	72.5	95	71.0	0	1	270	0.00	29.883 
18:00	72.5	72.5	72.5	95	71.0	0	1	270	0.00	29.883 
18:05	72.5	72.5	72.5	95	71.0	0	2	270	0.00	29.883 
18:10	72.7	72.7	72.7	95	71.2	0	1	270	0.00	29.883 
18:15	72.7	72.7	72.7	95	71.2	0	1	270	0.00	29.880 
18:20	72.8	72.8	72.8	95	71.3	0	1	270	0.00	29.880 
18:25	72.7	72.7	72.7	95	71.2	0	1	270	0.00	29.880 
18:30	72.8	72.8	72.8	95	71.3	0	1	270	0.00	29.871 
18:35	73.0	73.0	73.0	95	71.5	0	0	---	0.00	29.871 
18:40	73.0	73.0	73.0	95	71.5	0	1	270	0.00	29.871 
18:45	72.8	72.8	72.8	95	71.3	0	1	270	0.00	29.881 
18:50	72.8	72.8	72.8	95	71.3	0	1	270	0.00	29.881 
18:55	72.8	72.8	72.8	95	71.3	0	1	270	0.00	29.881 
19:00	72.7	72.7	72.7	95	71.2	0	1	270	0.00	29.884 
19:05	72.7	72.7	72.7	95	71.2	0	1	270	0.01	29.884 
19:10	72.7	72.7	72.7	95	71.2	0	1	270	0.00	29.884 
19:15	72.7	72.7	72.7	95	71.2	0	1	270	0.00	29.875 
19:20	72.7	72.7	72.7	95	71.2	0	1	270	0.00	29.875 
19:25	72.5	72.5	72.5	95	71.0	0	0	---	0.00	29.875 
19:30	72.5	72.5	72.5	95	71.0	0	0	---	0.00	29.870 
19:35	72.5	72.5	72.5	95	71.0	0	0	---	0.00	29.870 
19:40	72.5	72.5	72.5	95	71.0	0	0	---	0.00	29.870 
19:45	72.7	72.7	72.7	95	71.2	0	1	270	0.00	29.885 
19:50	72.7	72.7	72.7	95	71.2	0	0	---	0.01	29.885 
19:55	72.7	72.7	72.7	95	71.2	0	1	270	0.00	29.885 
20:00	72.7	72.7	72.7	95	71.2	0	0	---	0.01	29.882 
20:05	72.7	72.7	72.7	95	71.2	0	0	---	0.00	29.882 
20:10	72.7	72.7	72.7	95	71.2	0	0	---	0.00	29.882 
20:15	72.7	72.7	72.7	95	71.2	0	1	270	0.00	29.881 
20:20	72.7	72.7	72.7	95	71.2	0	0	---	0.00	29.881 
20:25	72.7	72.7	72.7	96	71.5	0	1	270	0.00	29.881 
20:30	72.5	72.5	72.5	96	71.3	0	1	270	0.01	29.877 
20:35	72.3	72.3	72.3	95	70.8	0	0	---	0.00	29.877 
20:40	72.3	72.3	72.3	95	70.8	0	1	270	0.00	29.877 
20:45	72.3	72.3	72.3	96	71.1	0	1	270	0.00	29.874 
20:50	72.1	72.1	72.1	96	70.9	0	1	270	0.01	29.874 
20:55	72.1	72.1	72.1	96	70.9	0	1	270	0.01	29.874 
21:00	72.3	72.3	72.3	96	71.1	0	1	270	0.00	29.885 
21:05	72.3	72.3	72.3	96	71.1	0	2	270	0.01	29.885 
21:10	72.1	72.1	72.1	96	70.9	0	2	270	0.02	29.885 
21:15	72.1	72.1	72.1	96	70.9	0	2	270	0.01	29.882 
21:20	72.0	72.0	72.0	96	70.8	0	1	270	0.01	29.882 
21:25	71.6	71.6	71.6	96	70.4	0	2	270	0.01	29.882 
21:30	71.5	71.5	71.5	96	70.3	0	1	270	0.02	29.883 
21:35	71.3	71.3	71.3	96	70.1	0	1	270	0.00	29.883 
21:40	70.9	70.9	70.9	96	69.7	0	1	270	0.01	29.883 
21:45	70.8	70.8	70.8	96	69.6	0	1	270	0.01	29.887 
21:50	70.6	70.6	70.6	96	69.4	0	1	270	0.01	29.887 
21:55	70.6	70.6	70.6	96	69.4	0	1	270	0.02	29.887 
22:00	70.6	70.6	70.6	96	69.4	0	1	270	0.02	29.893 
22:05	70.4	70.4	70.4	96	69.2	0	0	---	0.01	29.893 
22:10	70.4	70.4	70.4	96	69.2	0	0	---	0.00	29.893 
22:15	70.4	70.4	70.4	96	69.2	0	1	270	0.00	29.884 
22:20	70.4	70.4	70.4	96	69.2	0	0	---	0.00	29.884 
22:25	70.4	70.4	70.4	96	69.2	0	1	270	0.00	29.884 
22:30	70.4	70.4	70.4	96	69.2	0	0	---	0.00	29.887 
22:35	70.4	70.4	70.4	96	69.2	0	0	---	0.01	29.887 
22:40	70.4	70.4	70.4	96	69.2	0	2	270	0.01	29.887 
22:45	70.4	70.4	70.4	96	69.2	0	1	270	0.00	29.878 
22:50	70.4	70.4	70.4	96	69.2	0	1	270	0.00	29.878 
22:55	70.4	70.4	70.4	96	69.2	0	2	270	0.01	29.878 
23:00	70.6	70.6	70.6	96	69.4	1	3	270	0.06	29.900 
23:05	70.6	70.6	70.6	96	69.4	1	3	270	0.06	29.900 
23:10	70.6	70.6	70.6	96	69.4	0	3	270	0.06	29.900 
23:15	70.6	70.6	70.6	96	69.4	0	0	---	0.05	29.891 
23:20	70.6	70.6	70.6	96	69.4	0	2	270	0.04	29.891 
23:25	70.4	70.4	70.4	96	69.2	1	2	270	0.01	29.891 
23:30	70.4	70.4	70.4	96	69.2	0	1	270	0.01	29.906 
23:35	70.4	70.4	70.4	96	69.2	0	1	270	0.03	29.906 
23:40	70.4	70.4	70.4	96	69.2	0	1	270	0.03	29.906 
23:45	70.3	70.3	70.3	96	69.1	0	1	270	0.01	29.890 
23:50	70.3	70.3	70.3	96	69.1	0	1	270	0.02	29.890 
23:55	70.1	70.1	70.1	96	68.9	0	1	270	0.02	29.890 

CoCoRaHS
IN-AL-39
A2 Web Hosting
Creative Commons License
GoDaddy
search engine by freefind advanced

loaded 2018-11-18 11:10:13 • last modified 2010-11-18 10:43:29
Privacy PolicyDisclaimer
• wx.awcolley.com is powered by PmWiki v.2002016 •
• all content (unless otherwise noted) © 2018 A W Colley